Weather History for Chetumal, Mexico

Change the Weather History Date:

Tuesday, May 8, 2012

  Actual Average Record
Temperature  
Mean Temperature 87 °F -  
Max Temperature 94 °F 86 °F 94 °F (2012)
Min Temperature 80 °F 75 °F 73 °F (2001)
Cooling Degree Days 22    
Growing Degree Days 37 (Base 50)    
Moisture  
Dew Point 76 °F    
Average Humidity 71    
Maximum Humidity 79    
Minimum Humidity 47    
Precipitation  
Precipitation 0.00 in - - ()
Sea Level Pressure  
Sea Level Pressure 29.81 in    
Wind  
Wind Speed 6 mph ()    
Max Wind Speed 12 mph    
Max Gust Speed -    
Visibility 6.7 miles    
Events      
Averages and records for this station are not official NWS values.
T = Trace of Precipitation, MM = Missing Value Source: Averaged Metar Reports

Daily Weather History Graph

Daily Weather History Graph

Search for Another Location

Airport:

Trip Planner

Search our weather history database for the weather conditions in past years. The results will help you decide how hot, cold, wet, or windy it might be!

Date:

Astronomy

May. 08, 2012 Rise Set
Actual Time 6:22 AM CDT 7:17 PM CDT
Civil Twilight 5:59 AM CDT 7:40 PM CDT
Nautical Twilight 5:31 AM CDT 8:07 PM CDT
Astronomical Twilight 5:03 AM CDT 8:35 PM CDT
Moon 10:17 PM CDT (5/8) 8:42 AM CDT (5/8)
Length of Visible Light 13h 41m
Length of Day
12h 55m
Waning Gibbous, 90% of the Moon is Illuminated
May 8
Waning Gibbous
May 12
Last Quarter
May 20
New
May 28
First Quarter
Jun 4
Full

Hourly Weather History & Observations

Time (CDT) Temp. Heat Index Dew Point Humidity Pressure Visibility Wind Dir Wind Speed Gust Speed Precip Events Conditions
5:40 AM 82.4 °F 89.5 °F 75.2 °F 79% 29.79 in 7.0 mi Calm Calm - N/A   Scattered Clouds
6:45 AM 82.4 °F 89.5 °F 75.2 °F 79% 29.81 in 7.0 mi Calm Calm - N/A   Scattered Clouds
6:50 AM 81 °F - 74 °F 74% 29.84 in 6 mi ESE 4.5 mph - -   Scattered Clouds
7:40 AM 84.2 °F 92.3 °F 75.2 °F 74% 29.81 in 7.0 mi NNE 9.2 mph - N/A   Scattered Clouds
8:40 AM 84.2 °F 92.3 °F 75.2 °F 74% 29.82 in 7.0 mi ENE 9.2 mph - N/A   Scattered Clouds
9:45 AM 86.0 °F 96.9 °F 77.0 °F 74% 29.85 in 7.0 mi ENE 10.4 mph - N/A   Scattered Clouds
9:50 AM 88 °F - 75 °F 57% 29.88 in 6 mi ESE 4.5 mph - -   Partly Cloudy
10:40 AM 87.8 °F 99.7 °F 77.0 °F 70% 29.85 in 7.0 mi NNE 11.5 mph - N/A   Scattered Clouds
11:40 AM 89.6 °F 104.7 °F 78.8 °F 70% 29.83 in 7.0 mi ENE 9.2 mph - N/A   Scattered Clouds
12:45 PM 91.4 °F 107.2 °F 78.8 °F 66% 29.83 in 7.0 mi East 11.5 mph - N/A   Scattered Clouds
12:50 PM 91 °F - 73 °F 47% 29.86 in 6 mi ESE 4.5 mph - -   Scattered Clouds
1:40 PM 91.4 °F 107.2 °F 78.8 °F 66% 29.80 in 7.0 mi East 9.2 mph - N/A   Scattered Clouds
2:45 PM 87.8 °F 102.5 °F 78.8 °F 75% 29.78 in 7.0 mi SE 11.5 mph - N/A   Scattered Clouds
3:45 PM 87.8 °F 102.5 °F 78.8 °F 75% 29.77 in 7.0 mi SE 11.5 mph - N/A   Scattered Clouds
3:50 PM 92 °F - 75 °F 49% 29.80 in 6 mi ESE 4.5 mph - -   Scattered Clouds
4:45 PM 87.8 °F 102.5 °F 78.8 °F 75% - 7.0 mi SE 11.5 mph - N/A   Scattered Clouds
5:45 PM 86.0 °F 99.3 °F 78.8 °F 79% - 7.0 mi SE 11.5 mph - N/A   Scattered Clouds
6:45 PM 86.0 °F 99.3 °F 78.8 °F 79% 29.75 in 7.0 mi SE 11.5 mph - N/A   Scattered Clouds
6:50 PM 86 °F - 74 °F 59% 29.79 in 6 mi ESE 4.5 mph - -   Scattered Clouds
7:45 PM 84.2 °F 92.3 °F 75.2 °F 74% 29.75 in 7.0 mi SE 11.5 mph - N/A   Scattered Clouds
8:45 PM 84.2 °F 92.3 °F 75.2 °F 74% 29.78 in 7.0 mi SE 11.5 mph - N/A   Scattered Clouds
9:45 PM 82 °F - 76 °F 76% 29.84 in 5 mi ESE 6.7 mph - -   Partly Cloudy
9:45 PM 84.2 °F 92.3 °F 75.2 °F 74% 29.80 in 7.0 mi East 11.5 mph - N/A   Scattered Clouds
10:45 PM 84.2 °F 92.3 °F 75.2 °F 74% 29.80 in 7.0 mi East 11.5 mph - N/A   Scattered Clouds
11:45 PM 82.4 °F 89.5 °F 75.2 °F 79% 29.82 in 7.0 mi ESE 11.5 mph - N/A   Scattered Clouds